Location: Cabara
(44.8273°N, 0.1591°W)
Time: 01:45:33
(UTC+00:00)

Daily predictions for brighter satellites

Satellite Brightness Start Highest point End
(mag) Time Altitude Azimuth Time Altitude Azimuth Time Altitude Azimuth
ATLAS 3B R/B 4.0 03:36:30 34° SE 03:36:30 34° SE 03:40:16 10° SE
CZ-4C R/B 4.2 03:47:08 21° NE 03:47:08 21° NE 03:49:07 10° NE
BREEZE-M DEB (TANK) 4.5 03:53:02 79° NW 03:53:20 80° NNW 04:22:35 10° ENE
Atlas Centaur 2 4.4 04:00:45 21° S 04:00:45 21° S 04:04:11 10° SE
Cosmos 1844 Rocket 4.3 04:02:42 27° NNE 04:02:42 27° NNE 04:05:10 10° NNE
ATLAS 5 CENTAUR R/B 3.6 04:17:17 25° E 04:17:17 25° E 04:19:54 10° ENE
ADEOS 4.0 04:29:22 10° NNE 04:34:33 61° ESE 04:39:42 10° S
FENGYUN 3A 3.7 04:29:37 10° NNE 04:35:03 75° ESE 04:40:25 10° S
Cosmos 1844 4.3 04:37:52 43° N 04:37:52 43° N 04:41:40 10° NNE
ATLAS 2AS CENTAUR R/B 3.6 04:39:48 38° NNW 04:39:48 38° NNW 04:46:18 10° NNE
Meteor 1-10 Rocket 4.4 04:41:21 35° N 04:43:48 72° ENE 04:49:28 10° SSE
Milstar 3 Cent rocket 4.4 04:42:06 17° SSW 04:44:07 19° S 04:50:12 10° SE
SKYMED 2 4.5 04:43:15 10° SE 04:47:23 46° ENE 04:48:45 34° NNE
METEOR-M 4.1 04:44:32 10° NNE 04:49:55 79° ESE 04:55:15 10° S
CZ-2C R/B 3.6 04:50:56 13° SSE 04:50:56 13° SSE 04:51:51 10° SE
Cosmos 372 Rocket 3.9 04:49:27 64° S 04:50:15 82° ESE 04:55:23 10° NNE
COSMOS 2455 2.7 04:49:17 62° SW 04:50:22 83° WNW 04:56:27 10° NNE
Cosmos 2154 Rocket 4.1 04:47:59 10° S 04:54:12 74° E 05:00:29 10° NNE
Sich 1 4.0 04:55:30 10° SSE 04:59:44 48° E 05:04:01 10° NNE
ALOS 4.1 04:55:35 10° N 04:56:56 19° N 04:56:56 19° N
Cosmos 2344 4.5 04:55:57 35° NW 05:01:01 63° WSW 05:14:26 10° SSE
ERS-2 4.0 04:57:39 10° SSE 04:59:08 23° S 04:59:08 23° S
Cosmos 1833 Rocket 3.5 04:57:52 21° N 05:01:22 49° ENE 05:06:48 10° SE
Cosmos 2327 Rocket 4.4 04:56:59 10° S 05:03:03 88° E 05:09:11 10° N
Cosmos 2074 Rocket 3.9 04:59:33 10° SSW 05:05:39 60° W 05:11:49 10° N
SL-4 R/B 2.2 05:06:43 60° NE 05:06:43 60° NE 05:10:08 10° ESE
Cosmos 2082 Rocket 3.7 05:01:52 12° N 05:06:30 33° NE 05:11:37 10° ESE
EXPRESS MD2 3.3 05:07:42 84° NNW 05:07:49 86° NNE 05:14:00 10° ESE
Cosmos 2228 Rocket 3.2 05:11:09 54° SW 05:11:09 54° SW 05:14:45 10° S
Cosmos 1437 Rocket 2.9 05:12:49 58° S 05:12:49 58° S 05:15:54 10° S
Lacrosse 5 3.4 05:12:41 22° N 05:12:41 22° N 05:16:35 10° NE
Meteor 2-6 Rocket 4.3 05:16:01 48° WNW 05:16:30 49° W 05:21:47 10° SSW
EO 1 Delta rocket 4.1 05:12:30 10° SSE 05:17:10 68° ENE 05:21:49 10° N
Cosmos 2341 Rocket 4.4 05:14:48 10° S 05:20:54 64° E 05:27:04 10° NNE
ATLAS 3B R/B 3.9 05:23:49 23° WSW 05:23:49 23° WSW 05:28:36 10° SSW
USA 307 2.8 05:22:34 55° NW 05:23:28 84° NNE 05:27:47 10° SE
Meteor PRIRODA 3.7 05:23:21 10° NNE 05:27:07 81° E 05:30:50 10° S
CZ-4B R/B 2.9 05:24:51 10° NNE 05:29:17 86° WNW 05:33:31 10° SSW
USA 308 2.8 05:28:59 48° WNW 05:30:08 88° SW 05:34:26 10° SE
Cosmos 2184 Rocket 4.3 05:25:28 10° SW 05:31:24 41° WNW 05:37:25 10° N
CZ-4C R/B 3.5 05:32:20 22° NNW 05:32:48 22° NNW 05:37:37 10° NNE
Cosmos 2278 Rocket 2.3 05:28:00 10° SSW 05:33:39 81° ESE 05:39:21 10° NNE
SAR-Lupe-4 3.6 05:31:02 10° S 05:34:31 53° WSW 05:34:40 53° W
COSMO-SKYMED 1 2.6 05:31:09 10° S 05:35:24 54° W 05:37:21 30° NW
Okean O Rocket 4.3 05:35:12 10° NE 05:38:42 22° E 05:42:12 10° SE
Cosmos 1805 Rocket 3.7 05:35:24 10° SSW 05:39:43 48° WNW 05:44:03 10° N
Envisat 3.9 05:34:49 10° NNE 05:39:47 50° E 05:44:42 10° S
deb Chang Zheng 4 3.9 05:38:08 10° N 05:42:13 41° WNW 05:46:19 10° SW
Cosmos 1844 Rocket 3.9 05:44:24 21° NW 05:44:24 21° NW 05:48:18 10° N
Cosmos 494 Rocket 3.9 05:39:47 14° NNW 05:44:20 89° ENE 05:49:27 10° SSE
YAOGAN 6 3.6 05:41:37 10° NNE 05:44:59 45° E 05:48:20 10° S
Cosmos 1666 Rocket 3.4 05:43:34 10° S 05:47:53 83° W 05:52:17 10° N
COSMOS 2406 3.3 05:44:31 18° NW 05:48:45 62° WSW 05:54:26 10° S
FALCON 9 DEB 3.6 05:49:54 35° W 05:50:47 44° SW 05:54:05 10° SSE
BREEZE-M (TANK) 3.6 05:42:53 10° SW 05:51:35 54° SSE 05:54:25 10° ENE
Cosmos 1689 Rocket 2.7 05:49:27 10° SSW 05:51:46 34° WSW 05:51:46 34° WSW
USA 305 3.1 05:53:05 28° WNW 05:55:08 57° SW 05:59:20 10° SE
Cosmos 1242 Rocket 2.6 05:55:58 10° N 05:59:39 82° E 06:03:19 10° SSE
ATLAS 5 CENTAUR R/B 2.1 05:58:52 24° W 06:00:39 34° NW 06:04:52 10° NNE
H-2A R/B 2.9 05:57:00 10° NNE 06:00:48 58° ESE 06:04:35 10° S
MOS 1 Rocket 3.5 05:58:55 10° S 06:03:54 68° W 06:09:12 10° NNW
USA 306 3.3 06:01:36 23° WNW 06:03:57 49° SW 06:08:05 10° SSE
CZ-2C R/B 3.5 06:00:26 10° SE 06:05:38 51° ENE 06:10:46 10° N
Cosmos 2366 rocket 4.1 06:00:37 10° S 06:06:55 87° E 06:13:12 10° N
Cosmos 1633 Rocket 3.0 06:03:30 10° SSW 06:07:52 62° W 06:12:15 10° N
USA 229 DEB 4.5 06:01:33 10° NNW 06:08:42 55° NE 06:16:13 10° ESE
USA 229 4.5 06:01:40 10° NNW 06:08:48 55° NE 06:16:18 10° ESE
USA 81 4.0 06:04:37 10° SSW 06:09:48 61° W 06:15:02 10° N
Cosmos 2218 Rocket 3.9 06:06:25 10° S 06:12:39 82° W 06:18:51 10° N
Cosmos 1125 Rocket 3.6 06:08:16 10° SW 06:13:18 49° WNW 06:18:23 10° NNE
H-2A R/B 3.1 06:11:13 10° N 06:14:54 43° WNW 06:18:32 10° SW
Meteor 1-20 Rocket 4.2 06:09:16 10° SSW 06:14:59 74° WNW 06:20:50 10° N
GENESIS II 4.3 06:11:50 10° SSW 06:15:52 87° ESE 06:19:55 10° NE
NOSS 3-1 (C) 4.3 06:10:16 10° NW 06:17:46 75° NE 06:26:28 10° SE
Cosmos 1269 Rocket 4.0 06:15:06 10° NNW 06:20:26 88° WSW 06:25:42 10° SSE
PSLV R/B 3.9 06:19:19 10° N 06:22:58 46° WNW 06:26:32 10° SW
deb Kosmos-1763 4.0 06:23:15 10° NNW 06:26:51 64° WSW 06:30:24 10° S
NOSS 2-1 (E) 2.9 06:24:36 10° SW 06:27:57 85° ESE 06:31:26 10° NE
CZ-2C R/B 3.3 06:27:01 10° SW 06:28:52 14° S 06:30:41 10° SSE
ATLAS 2AS CENTAUR R/B 4.4 06:27:15 10° NW 06:32:30 19° N 06:37:46 10° NNE
AQUARIUS 4.3 06:29:20 10° NNE 06:33:51 85° ESE 06:38:20 10° SSW
Cosmos 2242 Rocket 3.6 06:31:36 10° N 06:36:02 85° E 06:40:25 10° S
CZ-4B DEB 4.2 06:30:50 10° N 06:36:13 59° WNW 06:41:35 10° SSW
COSMOS 2455 4.1 06:32:50 10° W 06:37:14 20° NW 06:41:40 10° N
Sich 1 4.5 06:34:43 10° WSW 06:37:42 17° WNW 06:40:41 10° NNW
Cosmos 1939 Rocket 4.1 06:38:13 10° NNE 06:42:13 47° E 06:46:13 10° S
FALCON 9 DEB 4.3 06:39:33 10° NW 06:42:26 29° NNE 06:45:18 10° E
Okean 1 3.7 06:39:36 10° NNW 06:43:30 45° W 06:47:21 10° SSW
USA 290 3.2 06:40:47 10° NW 06:43:37 28° WSW 06:46:26 10° SSW
Meteor 1-19 Rocket 4.2 06:39:37 10° NNW 06:44:58 61° W 06:50:16 10° S
Cosmos 1833 Rocket 3.7 06:40:23 10° NW 06:44:59 27° WSW 06:49:35 10° SSW
SL-4 R/B 3.2 06:42:35 10° W 06:45:45 25° SW 06:48:44 10° SSE
MOS 1-B 4.4 06:41:03 10° N 06:46:45 58° WNW 06:52:24 10° SSW
Cosmos 1703 Rocket 3.5 06:43:51 10° N 06:48:12 88° W 06:52:31 10° S
SL-8 Rocket 4.4 06:42:37 10° SW 06:48:17 38° WNW 06:54:01 10° N
Cosmos 1602 4.4 06:45:35 10° SW 06:49:10 33° WNW 06:52:45 10° N
NOAA 11 4.4 06:44:03 10° NNE 06:49:34 81° ESE 06:55:04 10° S
Cosmos 2082 Rocket 2.7 06:45:20 10° NW 06:50:43 43° WSW 06:56:05 10° S
CZ-4 R/B 3.8 06:50:17 10° NE 06:54:00 29° E 06:57:41 10° SSE
Cosmos 2297 3.7 06:49:01 10° SSW 06:54:38 86° WNW 07:00:20 10° NNE
Cosmos 1470 Rocket 4.2 06:51:13 10° SW 06:55:13 34° WNW 06:59:13 10° N
CZ-4B R/B 3.2 06:50:30 10° N 06:55:53 68° WNW 07:01:20 10° SSW
